User: anonymous   Login
Location: Asheville, NC
(35.6000°N, 82.5500°W)
Time: 12:44:35
(UTC-04:00)
Language:

UWE-3 - Orbit

View from above orbital plane
View from above orbital plane
View from above satellite
View from above satellite

Ground track
Ground track

The orbit data is extracted from the following two-line orbital elements,

1 39446U 13066AG  19143.02036883  .00000147  00000-0  26092-4 0  9995
2 39446  97.5816 150.0236 0070954 146.0317 214.5469 14.78375990295323
Epoch (UTC): 23 May 2019 00:29:19
Eccentricity: 0.0070954
inclination: 97.5816°
perigee height: 585 km
apogee height: 684 km
right ascension of ascending node: 150.0236°
argument of perigee: 146.0317°
revolutions per day: 14.78375990
mean anomaly at epoch: 214.5469°
orbit number at epoch: 29532

The dashed part of the orbit path shows where the satellite is in the earth's shadow,  

DLR